Weather in Shirahama

Japan     39°14′13″N   141°54′26″E
temp.,
°C
wind,
m/s
gust,
m/s
humid.,
%
clouds,
%
prec.,
mm/h
press.,
hPa
HPBL,
m
28 november, sun
sun2800:00+6wnw44645 0.0 1024374
03:00+6wnw43665 0.0 1025275
06:00+6nw44665 0.0 1027339
09:00+7nnw58542 0.0 10281303
12:00+9nnw574190 0.0 10282124
15:00+10nnw454245 0.0 10291708
18:00+8nw32531 0.0 1030492
21:00+7wnw33610 0.0 1031322
29 november, mon
mon2900:00+6wnw33580 0.0 1030321
03:00+6wnw33600 0.0 1030252
06:00+6wnw32620 0.0 1029276
09:00+8wsw335872 0.0 1029419
12:00+10sw4551100 0.0 1027960
15:00+11wsw345097 0.0 1026778
18:00+9w446337 0.0 1026308
21:00+9w44684 0.0 1027235
30 november, tue
tue3000:00+9w44690 0.0 1026221
03:00+9w44695 0.0 1026212
06:00+9w44665 0.0 1025214
09:00+11sw345966 0.0 1024316
12:00+12ssw78493 0.0 1021520
15:00+12ssw8136262 0.0 1019980
18:00+13sw9157695 0.0 10171146
21:00+15ssw152178100 0.8 10141672
1 december, wed
wed100:00+15ssw172476100 0.4 10111568
03:00+16s172474100 1.0 10071556
06:00+16s172582100 0.6 10031383
09:00+16s202988100 7.4 9961570
12:00+10w101675100 14.9 995917
15:00+11wsw10206242 15.1 9971648
18:00+8w917641 0.0 9991297
21:00+6w817657 0.0 10021734
2 december, thu
thu200:00+5w10197219 0.3 10041953
03:00+4w1122658 0.3 10062163
06:00+4w1120676 0.0 10091985
09:00+5w718635 0.0 10121779
12:00+7w4135411 0.0 10121678
15:00+8wsw512545 0.0 10141652
18:00+8sw914675 0.0 10161224
21:00+10sw1215601 0.0 10161332